Weather History for Klamath Falls, OR

Change the Weather History Date:

Friday, August 31, 2012

  Actual Average Record
Temperature  
Mean Temperature 61 °F 62 °F  
Max Temperature 82 °F 80 °F 95 °F (1998)
Min Temperature 40 °F 44 °F 31 °F (1999)
Degree Days  
Heating Degree Days 4 4  
Month to date heating degree days 38 68  
Since 1 June heating degree days 369 336  
Since 1 July heating degree days 80 119  
Cooling Degree Days 0 1  
Month to date cooling degree days 108 65  
Year to date cooling degree days 175 159  
Since 1 June cooling degree days 174 158  
Growing Degree Days 10 (Base 50)    
Moisture  
Dew Point 39 °F    
Average Humidity 54    
Maximum Humidity 89    
Minimum Humidity 13    
Precipitation  
Precipitation 0.00 in 0.03 in 0.71 in (1963)
Month to date precipitation 0.07 0.43  
Year to date precipitation 6.12 9.74  
Sea Level Pressure  
Sea Level Pressure 29.85 in    
Wind  
Wind Speed 4 mph (WSW)    
Max Wind Speed 22 mph    
Max Gust Speed 25 mph    
Visibility 8 miles    
Events      
T = Trace of Precipitation, MM = Missing Value Source: NWS Daily Summary

Daily Weather History Graph

Daily Weather History Graph

Search for Another Location

Airport:

Trip Planner

Search our weather history database for the weather conditions in past years. The results will help you decide how hot, cold, wet, or windy it might be!

Date:

Astronomy

Aug. 31, 2012 Rise Set
Actual Time 6:31 AM PDT 7:41 PM PDT
Civil Twilight 6:03 AM PDT 8:10 PM PDT
Nautical Twilight 5:28 AM PDT 8:44 PM PDT
Astronomical Twilight 4:52 AM PDT 9:20 PM PDT
Moon 7:28 PM PDT (8/31) 6:43 AM PDT (8/31)
Length of Visible Light 14h 07m
Length of Day
13h 09m
Full, 100% of the Moon is Illuminated
Aug 31
Full
Sep 8
Last Quarter
Sep 15
New
Sep 22
First Quarter
Sep 29
Full

Hourly Weather History & Observations

Time (PDT) Temp. Windchill Dew Point Humidity Pressure Visibility Wind Dir Wind Speed Gust Speed Precip Events Conditions
12:53 AM 48.9 °F - 43.0 °F 80% 29.83 in 10.0 mi Calm Calm - N/A   Clear
1:53 AM 46.9 °F - 42.1 °F 83% 29.83 in 10.0 mi Calm Calm - N/A   Clear
2:53 AM 46.9 °F - 41.0 °F 80% 29.82 in 10.0 mi SSE 5.8 mph - N/A   Clear
3:53 AM 42.1 °F - 37.0 °F 82% 29.83 in 8.0 mi Calm Calm - N/A   Clear
4:53 AM 44.1 °F - 39.9 °F 85% 29.83 in 9.0 mi Calm Calm - N/A   Clear
5:53 AM 41.0 °F - 37.9 °F 89% 29.85 in 9.0 mi Calm Calm - N/A   Clear
6:00 AM 39.2 °F 35.9 °F 37.4 °F 93% 29.94 in 8.0 mi ENE 4.6 mph - N/A   Clear
6:53 AM 42.8 °F - 39.2 °F 87% 29.86 in 7.0 mi Calm Calm - N/A   Partly Cloudy
7:53 AM 48.2 °F - 42.8 °F 82% 29.88 in 7.0 mi Calm Calm - N/A   Partly Cloudy
8:53 AM 57.2 °F - 42.8 °F 59% 29.87 in 8.0 mi Calm Calm - N/A   Partly Cloudy
9:53 AM 62.6 °F - 42.8 °F 48% 29.86 in 6.0 mi Calm Calm - N/A   Smoke
10:53 AM 68.0 °F - 39.2 °F 35% 29.86 in 6.0 mi ENE 3.5 mph - N/A   Smoke
11:53 AM 73.4 °F - 33.8 °F 23% 29.85 in 6.0 mi Calm Calm - N/A   Smoke
12:53 PM 77.0 °F - 33.8 °F 21% 29.83 in 6.0 mi Variable 4.6 mph - N/A   Smoke
1:53 PM 80.6 °F - 30.2 °F 16% 29.81 in 6.0 mi Variable 3.5 mph - N/A   Smoke
2:53 PM 80.6 °F - 26.6 °F 14% 29.79 in 6.0 mi SW 4.6 mph - N/A   Smoke
3:53 PM 80.6 °F - 24.8 °F 13% 29.79 in 6.0 mi Variable 3.5 mph - N/A   Smoke
4:53 PM 80.6 °F - 24.8 °F 13% 29.87 in 6.0 mi South 5.8 mph - N/A   Smoke
5:46 PM 78.8 °F - 37.4 °F 23% 29.88 in 6.0 mi NNW 18.4 mph - N/A   Smoke
5:53 PM 78.8 °F - 37.4 °F 23% 29.79 in 8.0 mi NNW 19.6 mph - N/A   Partly Cloudy
6:53 PM 73.4 °F - 42.8 °F 33% 29.81 in 6.0 mi NNW 15.0 mph - N/A   Smoke
7:53 PM 68.0 °F - 44.6 °F 43% 29.83 in 6.0 mi West 10.4 mph - N/A   Smoke
8:53 PM 62.6 °F - 46.4 °F 55% 29.86 in 6.0 mi West 9.2 mph - N/A   Smoke
9:53 PM 55.4 °F - 46.4 °F 72% 29.88 in 8.0 mi ESE 5.8 mph - N/A   Partly Cloudy
10:53 PM 53.6 °F - 46.4 °F 77% 29.98 in 10.0 mi South 4.6 mph - N/A   Clear
11:53 PM 50.0 °F - 46.0 °F 86% 29.91 in 10.0 mi Calm Calm - N/A   Clear